Waarnemingen

Advertentie
Mijn weer
Kirkwall, Groot Brittannië (3017): temperatuur & dauwpunt: 05.12.2018 16:00:00 - 11.12.2018 16:00:00 (GMT)Kirkwall, Groot Brittannië (3017): temperatuur -20cm & temperatuur -100cm: 05.12.2018 16:00:00 - 11.12.2018 16:00:00 (GMT)Kirkwall, Groot Brittannië (3017): windsnelheid & windstoten: 05.12.2018 16:00:00 - 11.12.2018 16:00:00 (GMT)Kirkwall, Groot Brittannië (3017): windrichting: 05.12.2018 16:00:00 - 11.12.2018 16:00:00 (GMT)Kirkwall, Groot Brittannië (3017): luchtdruk: 05.12.2018 16:00:00 - 11.12.2018 16:00:00 (GMT)Kirkwall, Groot Brittannië (3017): zicht: 05.12.2018 16:00:00 - 11.12.2018 16:00:00 (GMT)Kirkwall, Groot Brittannië (3017): Zonneschijnduur: 05.12.2018 16:00:00 - 11.12.2018 16:00:00 (GMT)Kirkwall, Groot Brittannië (3017): neerslag: 05.12.2018 16:00:00 - 11.12.2018 16:00:00 (GMT)
Datum & Tijd tt [°C] td [°C] tt -20cm [°C] tt -100cm [°C] ff [km/u] ff [kn] fx [km/u] fx [kn] dd ppp [hPa] vv [km] sd [min] rr [mm]
11.12.2018 16:00:00 - - - - - - - - - - - - -
11.12.2018 15:00:00 7,6 5,8 - - 37 20 52 28 ZZO 1018,5 14 0 -
11.12.2018 14:00:00 7,4 5,6 - - 35 19 54 29 ZZO 1018,7 17 6 0,0
11.12.2018 13:00:00 7,8 5,5 - - 39 21 55 30 ZZO 1019,3 20 30 0,0
11.12.2018 12:00:00 7,5 5,2 - - 39 21 55 30 ZZO 1019,6 21 18 0,0
11.12.2018 11:00:00 7,1 4,9 - - 39 21 54 29 ZZO 1020,0 20 0 0,0
11.12.2018 10:00:00 6,7 4,3 - - 39 21 54 29 ZZO 1020,4 23 0 0,0
11.12.2018 09:00:00 6,4 3,7 5,4 7,2 39 21 52 28 ZZO 1020,6 35 0 0,0
11.12.2018 08:00:00 6,3 3,5 - - 31 17 50 27 ZZO 1020,9 30 0 0,0
11.12.2018 07:00:00 6,0 2,9 - - 31 17 - - ZZO 1020,9 30 0 0,0
11.12.2018 06:00:00 5,5 2,3 - - 29 16 - - ZZO 1021,4 30 0 0,0
11.12.2018 05:00:00 5,2 1,8 - - 29 16 - - ZZO 1021,8 30 0 0,0
11.12.2018 04:00:00 4,7 1,6 - - 22 12 - - ZZO 1022,4 35 0 0,0
11.12.2018 03:00:00 4,3 0,8 - - 22 12 - - ZZO 1022,9 45 0 0,0
11.12.2018 02:00:00 3,6 0,4 - - 22 12 - - ZZO 1023,0 45 0 0,0
11.12.2018 01:00:00 3,4 0,3 - - 18 10 - - ZZO 1023,5 40 0 0,0
11.12.2018 00:00:00 2,2 -0,6 - - 16 9 - - ZZO 1023,9 40 - 0,0
10.12.2018 23:00:00 0,9 -1,3 - - 16 9 - - ZZO 1024,4 40 0 0,0
10.12.2018 22:00:00 0,8 -2,0 - - 11 6 - - ZO 1024,5 40 0 0,0
10.12.2018 21:00:00 1,2 -2,2 - - 11 6 - - OZO 1025,0 45 0 0,0
10.12.2018 20:00:00 1,1 -2,2 - - 8 4 - - OZO 1025,0 45 0 0,0
10.12.2018 19:00:00 3,2 -0,9 - - 9 5 - - ZZW 1025,0 35 0 0,0
10.12.2018 18:00:00 2,5 -1,4 - - 4 2 - - ZZW 1025,0 40 0 0,0
10.12.2018 17:00:00 3,7 -0,8 - - 5 3 - - WZW 1025,3 45 0 0,0
10.12.2018 16:00:00 3,6 -0,7 - - 8 4 - - WZW 1025,2 35 0 0,0
10.12.2018 15:00:00 4,3 -1,3 - - 9 5 - - W 1025,1 35 0 0,0
10.12.2018 14:00:00 4,9 -1,4 - - 13 7 - - NW 1024,9 35 0 0,0
10.12.2018 13:00:00 4,8 -2,2 - - 13 7 - - WNW 1024,8 27 0 0,0
10.12.2018 12:00:00 4,4 -0,1 - - 9 5 - - WNW 1024,4 23 0 0,0
10.12.2018 11:00:00 4,2 -0,1 - - 11 6 - - WNW 1023,9 35 0 0,0
10.12.2018 10:00:00 4,4 -1,9 - - 16 9 - - WNW 1023,3 50 0 0,0
10.12.2018 09:00:00 4,1 -1,6 5,7 7,2 16 9 - - WNW 1022,8 50 0 0,0
10.12.2018 08:00:00 4,1 -2,3 - - 18 10 - - WNW 1022,1 45 0 0,0
10.12.2018 07:00:00 4,3 -2,3 - - 18 10 - - WNW 1021,7 50 0 0,0
10.12.2018 06:00:00 4,9 -3,2 - - 24 13 - - NW 1021,2 50 0 0,0
10.12.2018 05:00:00 4,2 -2,2 - - 18 10 - - NW 1020,1 45 0 0,0
10.12.2018 04:00:00 3,5 -2,1 - - 18 10 - - WNW 1019,7 40 0 0,0
10.12.2018 03:00:00 3,0 -0,1 - - 16 9 46 25 W 1018,9 30 0 0,0
10.12.2018 02:00:00 3,8 -1,3 - - 24 13 - - NW 1018,4 40 0 0,0
10.12.2018 01:00:00 3,2 -0,7 - - 31 17 50 27 NW 1017,6 45 0 0,0
10.12.2018 00:00:00 2,9 -1,8 - - 21 11 - - NW 1016,8 45 - 0,0
09.12.2018 23:00:00 3,2 -1,3 - - 22 12 48 26 NW 1016,0 40 0 0,0
09.12.2018 22:00:00 3,6 -1,5 - - 29 16 48 26 NW 1015,5 35 0 0,0
09.12.2018 21:00:00 3,3 -1,8 - - 31 17 55 30 NNW 1014,5 50 0 0,0
09.12.2018 20:00:00 3,9 -1,5 - - 26 14 48 26 NW 1013,7 35 0 0,0
09.12.2018 19:00:00 3,1 -1,2 - - 28 15 46 25 NW 1013,3 50 0 0,0
09.12.2018 18:00:00 3,5 -0,5 - - 22 12 48 26 NW 1012,3 40 0 0,0
09.12.2018 17:00:00 2,8 -1,7 - - 21 11 - - WNW 1011,3 45 0 0,0
09.12.2018 16:00:00 4,3 -2,3 - - 26 14 46 25 NW 1010,3 35 0 0,0
09.12.2018 15:00:00 4,5 -2,2 - - 28 15 46 25 NNW 1009,3 35 0 0,0
09.12.2018 14:00:00 4,3 0,1 - - 26 14 46 25 NNW 1008,1 28 24 0,0
09.12.2018 13:00:00 4,8 0,3 - - 26 14 - - NW 1007,3 35 24 0,0
09.12.2018 12:00:00 3,0 1,4 - - 31 17 63 34 N 1007,0 30 0 0,8
09.12.2018 11:00:00 4,6 -0,2 - - 24 13 - - NW 1005,5 35 6 0,0
09.12.2018 10:00:00 4,3 0,4 - - 29 16 50 27 NNW 1004,4 28 0 0,2
09.12.2018 09:00:00 4,7 0,5 6,0 7,2 37 20 54 29 N 1003,2 30 0 0,0
09.12.2018 08:00:00 4,9 0,0 - - 37 20 57 31 N 1001,7 24 0 0,0
09.12.2018 07:00:00 5,1 -1,1 - - 35 19 48 26 NNW 1000,0 40 0 0,0
09.12.2018 06:00:00 5,0 -1,2 - - 41 22 55 30 NNW 998,5 25 0 0,0
09.12.2018 05:00:00 5,6 0,4 - - 41 22 57 31 N 996,9 19 0 0,0
09.12.2018 04:00:00 5,2 2,8 - - 46 25 57 31 N 995,3 15 0 0,0
09.12.2018 03:00:00 5,7 3,1 - - 35 19 61 33 NNO 993,9 23 0 0,2
09.12.2018 02:00:00 5,4 3,0 - - 22 12 59 32 N 992,3 22 0 0,0
09.12.2018 01:00:00 5,1 2,3 - - 35 19 57 31 NNW 991,1 6 0 0,0
09.12.2018 00:00:00 6,4 1,9 - - 28 15 - - NNW 990,0 28 - 0,0
08.12.2018 23:00:00 6,6 0,8 - - 31 17 - - NNW 989,2 25 0 0,0
08.12.2018 22:00:00 6,4 3,0 - - 31 17 52 28 N 988,4 17 0 0,2
08.12.2018 21:00:00 6,3 3,7 - - 34 18 48 26 N 987,6 23 0 0,2
08.12.2018 20:00:00 5,5 3,3 - - 31 17 46 25 N 987,0 6 0 0,2
08.12.2018 19:00:00 6,4 4,1 - - 26 14 - - N 986,3 18 0 0,0
08.12.2018 18:00:00 6,3 4,8 - - 28 15 46 25 N 985,8 17 0 1,2
08.12.2018 17:00:00 6,3 4,7 - - 29 16 - - N 985,5 18 0 0,2
08.12.2018 16:00:00 6,4 4,8 - - 24 13 - - NNW 985,2 14 0 0,0
08.12.2018 15:00:00 6,2 4,7 - - 31 17 46 25 NNW 984,8 22 6 0,0
08.12.2018 14:00:00 6,5 5,2 - - 31 17 - - NNW 984,8 15 0 0,2
08.12.2018 13:00:00 7,1 5,4 - - 31 17 46 25 NNW 984,9 18 12 0,0
08.12.2018 12:00:00 7,1 5,4 - - 28 15 - - NNW 984,6 21 6 0,0
08.12.2018 11:00:00 7,0 5,0 - - 29 16 50 27 NNW 984,1 28 0 0,0
08.12.2018 10:00:00 7,6 5,3 - - 31 17 46 25 NW 983,4 21 0 0,0
08.12.2018 09:00:00 7,1 5,3 6,0 7,2 21 11 - - NW 982,9 35 0 0,0
08.12.2018 08:00:00 7,2 5,3 - - 22 12 - - NW 982,0 24 0 0,0
08.12.2018 07:00:00 7,6 5,6 - - 21 11 - - NW 981,0 12 0 0,2
08.12.2018 06:00:00 7,6 5,8 - - 29 16 - - NNW 979,8 26 0 0,0
08.12.2018 05:00:00 7,5 5,8 - - 34 18 48 26 NNW 978,0 17 0 0,0
08.12.2018 04:00:00 7,3 5,5 - - 35 19 54 29 NNW 976,4 35 0 0,0
08.12.2018 03:00:00 7,5 6,4 - - 31 17 50 27 NNW 974,6 16 0 0,0
08.12.2018 02:00:00 7,4 6,1 - - 31 17 - - NNW 972,8 30 0 0,0
08.12.2018 01:00:00 7,3 5,9 - - 31 17 54 29 NW 971,2 19 0 0,0
08.12.2018 00:00:00 7,4 6,6 - - 35 19 52 28 NW 968,6 14 - 0,0
07.12.2018 23:00:00 7,4 6,5 - - 29 16 - - W 966,3 16 0 0,4
07.12.2018 22:00:00 7,2 6,6 - - 28 15 55 30 ZZW 966,7 9 0 1,4
07.12.2018 21:00:00 6,7 5,5 - - 34 18 52 28 Z 968,2 5 0 1,2
07.12.2018 20:00:00 6,5 5,0 - - 39 21 55 30 Z 969,3 28 0 0,0
07.12.2018 19:00:00 6,1 4,3 - - 39 21 54 29 Z 970,2 14 0 0,0
07.12.2018 18:00:00 6,2 3,6 - - 39 21 54 29 Z 971,3 50 0 0,0
07.12.2018 17:00:00 6,8 3,8 - - 41 22 59 32 Z 972,2 30 0 0,0
07.12.2018 16:00:00 6,5 3,9 - - 39 21 59 32 Z 973,5 26 0 0,0
07.12.2018 15:00:00 6,8 4,1 - - 39 21 57 31 Z 974,6 35 0 0,0
07.12.2018 14:00:00 6,7 3,7 - - 41 22 57 31 Z 975,6 27 54 0,0
07.12.2018 13:00:00 7,4 4,2 - - 37 20 55 30 Z 976,6 20 60 0,0
07.12.2018 12:00:00 7,5 4,0 - - 35 19 57 31 Z 977,9 27 48 0,0
07.12.2018 11:00:00 6,8 3,9 - - 35 19 50 27 Z 979,2 29 0 0,0
07.12.2018 10:00:00 7,1 4,3 - - 35 19 54 29 Z 979,6 17 0 0,0
07.12.2018 09:00:00 8,1 5,8 5,7 7,4 37 20 59 32 Z 980,3 17 0 0,0
07.12.2018 08:00:00 8,5 7,5 - - 44 24 63 34 ZZO 981,6 12 0 0,2
07.12.2018 07:00:00 8,1 7,4 - - 44 24 61 33 ZZO 983,3 5 0 0,0
07.12.2018 06:00:00 8,3 7,3 - - 41 22 57 31 ZO 985,4 10 0 0,4
07.12.2018 05:00:00 8,0 6,3 - - 26 14 - - ZO 987,2 9 0 0,2
07.12.2018 04:00:00 8,0 5,9 - - 24 13 - - ZZO 990,1 15 0 0,0
07.12.2018 03:00:00 7,5 6,0 - - 18 10 - - ZZO 991,8 11 0 0,0
07.12.2018 02:00:00 6,9 5,3 - - 15 8 - - Z 993,6 13 0 0,0
07.12.2018 01:00:00 7,3 5,9 - - 16 9 - - ZZW 995,7 14 0 0,0
07.12.2018 00:00:00 7,4 5,2 - - 15 8 - - Z 996,4 18 - 0,0
06.12.2018 23:00:00 7,5 5,4 - - 18 10 - - ZZW 996,9 16 0 0,0
06.12.2018 22:00:00 8,4 6,4 - - 22 12 - - ZW 997,4 13 0 0,0
06.12.2018 21:00:00 8,7 6,9 - - 29 16 - - WZW 997,2 11 0 0,0
06.12.2018 20:00:00 8,3 6,5 - - 29 16 46 25 W 997,3 17 0 0,0
06.12.2018 19:00:00 8,7 6,8 - - 31 17 57 31 W 996,9 16 0 0,0
06.12.2018 18:00:00 9,0 6,6 - - 41 22 59 32 WZW 996,6 16 0 0,0
06.12.2018 17:00:00 9,2 7,3 - - 34 18 57 31 WZW 996,0 13 0 0,0
06.12.2018 16:00:00 8,6 7,5 - - 39 21 57 31 WZW 995,0 11 0 0,2
06.12.2018 15:00:00 8,8 7,4 - - 22 12 78 42 WZW 994,5 11 0 0,6
06.12.2018 14:00:00 9,4 8,0 - - 22 12 - - ZW 994,2 27 0 0,0
06.12.2018 13:00:00 8,7 7,7 - - 26 14 - - ZZW 993,8 29 6 0,0
06.12.2018 12:00:00 8,2 7,5 - - 29 16 52 28 Z 994,1 13 0 0,2
06.12.2018 11:00:00 8,0 7,7 - - 39 21 61 33 Z 994,7 6 0 2,2
06.12.2018 10:00:00 8,1 7,5 - - 46 25 67 36 ZZO 995,8 6 0 2,2
06.12.2018 09:00:00 8,0 7,3 5,4 7,5 42 23 59 32 ZZO 997,1 5 0 0,6
06.12.2018 08:00:00 7,6 7,0 - - 41 22 59 32 ZZO 999,3 4,2 0 0,8
06.12.2018 07:00:00 7,5 6,5 - - 35 19 54 29 ZZO 1000,9 23 0 0,2
06.12.2018 06:00:00 7,4 6,4 - - 37 20 50 27 ZO 1001,7 23 0 0,4
06.12.2018 05:00:00 7,1 6,2 - - 31 17 46 25 ZO 1003,2 12 0 0,2
06.12.2018 04:00:00 7,3 5,9 - - 28 15 - - ZO 1004,8 35 0 0,0
06.12.2018 03:00:00 7,1 5,4 - - 24 13 - - ZO 1006,1 45 0 0,0
06.12.2018 02:00:00 6,7 5,5 - - 24 13 - - ZO 1007,2 40 0 0,0
06.12.2018 01:00:00 6,4 5,2 - - 24 13 - - OZO 1008,4 30 0 0,2
06.12.2018 00:00:00 6,2 3,9 - - 22 12 - - OZO 1009,0 18 - 0,0
05.12.2018 23:00:00 5,8 3,0 - - 16 9 - - OZO 1009,4 50 0 0,0
05.12.2018 22:00:00 4,3 2,2 - - 18 10 - - OZO 1009,7 50 0 0,0
05.12.2018 21:00:00 3,8 2,0 - - 16 9 - - O 1009,7 50 0 0,0
05.12.2018 20:00:00 2,6 1,1 - - 16 9 - - OZO 1010,9 50 0 0,0
05.12.2018 19:00:00 1,2 -0,7 - - 8 4 - - O 1012,0 50 0 0,0
05.12.2018 18:00:00 1,4 -1,1 - - 11 6 - - ZO 1012,1 45 0 0,0
05.12.2018 17:00:00 1,8 -0,8 - - 13 7 - - ZO 1012,6 45 0 0,0
05.12.2018 16:00:00 2,2 0,0 - - 9 5 - - ZO 1013,0 45 0 0,0

tt = temperatuur
td = dauwpunt
tt -20cm = temperatuur -20cm
tt -100cm = temperatuur -100cm
ff = windsnelheid
fx = windstoten
dd = windrichting
ppp = luchtdruk
vv = zicht
sd = Zonneschijnduur
rr = neerslag

Weerstations in de omgeving